Everett, WA
on Sunday, January 6, 2013

Sunday
Previous Day Next Day
Daily Summary
 ActualAverageRecord
Temperature
Mean Temperature °F °F  
Max Temperature 44°F 42°F 59°F (2003)
Min Temperature 39°F 29°F 10°F (1982)
Degree Days
Heating Degree Days 24    
Moisture
Dew Point 38°F   
Average Humidity 87    
Maximum Humidity 93    
Minimum Humidity 76    
Precipitation
Precipitation 0.13 in in in ()
Wind
Wind Speed 10 mph   
Max Wind Speed 17 mph   
Max Gust Speed 24 mph   
Visibility 9 miles   
Events Rain   
Averages and records for this station are not official NWS values.
Key: T is trace of precipitation, MM is missing value
Source: NWS Daily Summary
Seasonal Weather Averages
Time(PST)TemperatureDew PointHumidity Pressure Visibility Wind DirectionWind SpeedGust SpeedPrecipitationEvents Conditions
12:53 AM 42.1°F 39.0°F 89% 30.14 in 9.0 miles SSE 9.2 mph - 0.00 in   Overcast
1:06 AM 41.0°F 39.2°F 93% 30.13 in 8.0 miles SSE 9.2 mph - N/A   Overcast
1:51 AM 41.0°F 39.2°F 93% 30.14 in 4.0 miles South 6.9 mph - N/A   Overcast
1:53 AM 41.0°F 39.0°F 93% 30.15 in 4.0 miles South 6.9 mph - N/A   Overcast
2:01 AM 41.0°F 37.4°F 87% 30.14 in 5.0 miles South 8.1 mph - N/A   Overcast
2:53 AM 41.0°F 37.9°F 89% 30.16 in 9.0 miles SSE 6.9 mph - N/A   Overcast
3:21 AM 41.0°F 37.4°F 87% 30.14 in 10.0 miles SSE 8.1 mph - N/A   Overcast
3:53 AM 39.9°F 37.0°F 89% 30.16 in 9.0 miles SSE 4.6 mph - N/A   Overcast
4:53 AM 39.9°F 37.0°F 89% 30.14 in 10.0 miles SSE 5.8 mph - N/A   Overcast
5:45 AM 39.2°F 37.4°F 93% 30.13 in 10.0 miles SSE 10.4 mph - N/A   Overcast
5:53 AM 39.9°F 37.0°F 89% 30.14 in 10.0 miles SSE 9.2 mph - N/A   Overcast
6:39 AM 39.2°F 37.4°F 93% 30.13 in 10.0 miles South 9.2 mph - N/A   Overcast
6:51 AM 39.2°F 37.4°F 93% 30.12 in 10.0 miles SSE 9.2 mph - N/A   Overcast
6:53 AM 39.9°F 37.0°F 89% 30.14 in 10.0 miles SSE 9.2 mph - N/A   Overcast
7:53 AM 41.0°F 37.0°F 86% 30.15 in 10.0 miles SSE 9.2 mph - N/A   Overcast
8:53 AM 41.0°F 37.0°F 86% 30.16 in 10.0 miles South 9.2 mph - N/A   Overcast
9:15 AM 41.0°F 37.4°F 87% 30.14 in 10.0 miles SSE 10.4 mph - N/A   Overcast
9:22 AM 41.0°F 37.4°F 87% 30.14 in 10.0 miles SSE 12.7 mph - N/A   Overcast
9:53 AM 41.0°F 37.9°F 89% 30.17 in 10.0 miles SSE 10.4 mph - N/A   Overcast
10:15 AM 42.8°F 37.4°F 81% 30.16 in 10.0 miles South 11.5 mph - N/A   Overcast
10:53 AM 43.0°F 37.0°F 80% 30.17 in 10.0 miles South 15.0 mph 21.9 mph N/A   Overcast
11:53 AM 43.0°F 37.9°F 82% 30.14 in 10.0 miles South 12.7 mph 21.9 mph N/A   Overcast
12:53 PM 44.1°F 37.9°F 79% 30.12 in 10.0 miles South 16.1 mph 21.9 mph N/A   Overcast
1:53 PM 44.1°F 37.0°F 76% 30.10 in 10.0 miles South 17.3 mph 23.0 mph N/A   Overcast
2:53 PM 43.0°F 39.0°F 86% 30.10 in 9.0 miles South 16.1 mph 23.0 mph 0.00 in   Overcast
3:53 PM 43.0°F 39.0°F 86% 30.10 in 6.0 miles SSE 12.7 mph - 0.01 in Rain Light Rain
4:53 PM 43.0°F 39.0°F 86% 30.08 in 6.0 miles SSE 12.7 mph - 0.02 in Rain Light Rain
5:53 PM 42.1°F 39.0°F 89% 30.07 in 6.0 miles SSE 10.4 mph - 0.02 in Rain Light Rain
6:49 PM 42.8°F 39.2°F 87% 30.06 in 10.0 miles SSE 8.1 mph - 0.01 in Rain Light Rain
6:53 PM 42.1°F 39.0°F 89% 30.07 in 10.0 miles SSE 8.1 mph - 0.01 in Rain Light Rain
7:46 PM 42.8°F 37.4°F 81% 30.04 in 9.0 miles South 13.8 mph 24.2 mph 0.02 in Rain Light Rain
7:53 PM 43.0°F 37.9°F 82% 30.06 in 10.0 miles South 11.5 mph 23.0 mph 0.03 in Rain Light Rain
8:53 PM 42.1°F 37.0°F 82% 30.04 in 10.0 miles SSE 16.1 mph 23.0 mph 0.02 in Rain Light Rain
9:36 PM 41.0°F 37.4°F 87% 30.01 in 10.0 miles SSE 12.7 mph 21.9 mph N/A   Overcast
9:53 PM 41.0°F 37.0°F 86% 30.01 in 9.0 miles SSE 16.1 mph 20.7 mph 0.01 in   Overcast
10:00 PM 39.2°F 37.4°F 93% 30.00 in 8.0 miles SSE 15.0 mph - N/A   Overcast
10:53 PM 39.9°F 37.0°F 89% 30.00 in 7.0 miles SSE 15.0 mph 21.9 mph N/A   Overcast
11:53 PM 41.0°F 37.0°F 86% 29.99 in 10.0 miles SSE 12.7 mph 19.6 mph 0.01 in Rain Light Rain
Moon Phase
Jan. 06 Jan. 11 Jan. 18 Jan. 26 Feb. 03
Sunrise:07:57 AM (PST) Moon Rise:02:08 AM (PST)1/6
Sunset:04:32 PM (PST) Moon Set:12:11 PM (PST)1/6

Copyright © 2014 The Weather Underground, Inc.